Flag for USA

Past Weather in Payson, Arizona, USA — Yesterday and Last 2 Weeks

Now
97 °F

Sunny.


Feels Like: 93 °F
Forecast: 98 / 70 °F
Wind: 9 mph from Southwest

Location: Payson

Current Time: Jul 10, 2020 at 3:37:01 pm

Latest Report: Jul 10, 2020 at 2:55 pm


Visibility: 10 mi

Pressure: 30.24 "Hg (25.55 "Hg at 1524m altitude)

Humidity: 17%

Dew Point: 45 °F

Location of PaysonLocation

Past Weather in Payson — Graph

°F

Payson Temperature Yesterday

Maximum temperature yesterday: 93 °F (at 3:15 pm)
Minimum temperature yesterday: 66 °F (at 4:15 am)
Average temperature yesterday: 82 °F

High & Low Weather Summary for the Past Weeks

 TemperatureHumidityPressure
High97 °F (Jul 10, 1:55 pm)60% (Jul 4, 2:55 am)30.31 "Hg (Jul 4, 2:55 am)
Low55 °F (Jun 30, 4:35 am)3% (Jun 25, 3:35 pm)29.89 "Hg (Jun 28, 5:55 pm)
Average78 °F22%30.12 "Hg
* Reported Jun 25 2:15 pm — Jul 10 2:15 pm, Payson. Weather by CustomWeather, © 2020

Note: Actual official high and low records may vary slightly from our data, if they occured in-between our weather recording intervals... More about our weather records

Payson Weather History for the Previous 24 Hours

Scroll right to see more
 ConditionsComfort  
Time TempWeatherWind HumidityBarometerVisibility
2:15 pm
Fri, Jul 10
95 °FSunny.15 mph18%30.25 "Hg10 mi
1:55 pm97 °FSunny.9 mph18%30.25 "Hg10 mi
1:35 pm95 °FSunny.12 mph19%30.26 "Hg10 mi
1:15 pm95 °FSunny.14 mph19%30.27 "Hg10 mi
12:35 pm93 °FSunny.7 mph20%30.28 "Hg10 mi
12:15 pm91 °FSunny.14 mph21%30.29 "Hg10 mi
11:55 am91 °FSunny.14 mph21%30.30 "Hg10 mi
11:35 am90 °FSunny.14 mph22%30.30 "Hg10 mi
11:15 am90 °FSunny.13 mph21%30.31 "Hg10 mi
10:55 am90 °FSunny.10 mph21%30.31 "Hg10 mi
10:35 am90 °FSunny.9 mph21%30.31 "Hg10 mi
10:15 am88 °FSunny.9 mph22%30.31 "Hg10 mi
9:55 am86 °FSunny.7 mph24%30.31 "Hg10 mi
9:35 am86 °FSunny.6 mph24%30.31 "Hg10 mi
9:15 am86 °FSunny.7 mph24%30.30 "Hg10 mi
8:55 am84 °FSunny.7 mph25%30.30 "Hg10 mi
8:35 am84 °FSunny.8 mph25%30.30 "Hg10 mi
8:15 am82 °FSunny.7 mph26%30.30 "Hg10 mi
7:55 am79 °FSunny.No wind32%30.29 "Hg10 mi
7:35 am75 °FSunny.No wind34%30.28 "Hg10 mi
7:15 am73 °FSunny.5 mph36%30.27 "Hg10 mi
6:35 am68 °FSunny.No wind40%30.27 "Hg10 mi
6:15 am68 °FSunny.No wind40%30.27 "Hg10 mi
5:55 am72 °FSunny.No wind36%30.26 "Hg10 mi
5:35 am72 °FSunny.No wind36%30.26 "Hg10 mi
5:15 am70 °FClear.No wind38%30.25 "Hg10 mi
4:55 am70 °FClear.No wind35%30.24 "Hg10 mi
4:35 am70 °FClear.No wind35%30.23 "Hg10 mi
4:15 am70 °FClear.No wind35%30.22 "Hg10 mi
3:55 am70 °FClear.No wind35%30.22 "Hg10 mi
3:35 am70 °FClear.No wind35%30.22 "Hg10 mi
3:15 am72 °FClear.No wind33%30.22 "Hg10 mi
2:55 am72 °FClear.No wind33%30.21 "Hg10 mi
2:35 am72 °FClear.No wind33%30.21 "Hg10 mi
2:15 am72 °FClear.5 mph33%30.21 "Hg10 mi
1:55 am72 °FClear.No wind33%30.21 "Hg10 mi
1:35 am73 °FClear.5 mph31%30.21 "Hg10 mi
1:15 am73 °FClear.3 mph31%30.21 "Hg10 mi
12:35 am73 °FClear.5 mph31%30.21 "Hg10 mi
12:15 am73 °FClear.6 mph31%30.21 "Hg10 mi
11:55 pm
Thu, Jul 9
75 °FClear.6 mph29%30.21 "Hg10 mi
11:35 pm75 °FClear.5 mph29%30.21 "Hg10 mi
11:15 pm77 °FClear.3 mph28%30.21 "Hg10 mi
10:55 pm77 °FClear.3 mph28%30.20 "Hg10 mi
10:35 pm77 °FClear.No wind28%30.20 "Hg10 mi
10:15 pm79 °FClear.No wind28%30.20 "Hg10 mi
9:55 pm81 °FClear.6 mph26%30.20 "Hg10 mi
9:35 pm82 °FClear.6 mph25%30.19 "Hg10 mi
9:15 pm82 °FClear.6 mph23%30.19 "Hg10 mi
8:55 pm82 °FClear.5 mph23%30.18 "Hg10 mi
8:35 pm84 °FClear.6 mph20%30.17 "Hg10 mi
8:15 pm84 °FClear.5 mph20%30.16 "Hg10 mi
7:55 pm84 °FClear.7 mph20%30.16 "Hg10 mi
7:35 pm86 °FSunny.7 mph18%30.15 "Hg10 mi
7:15 pm88 °FSunny.7 mph17%30.15 "Hg10 mi
6:35 pm90 °FSunny.9 mph16%30.14 "Hg10 mi
6:15 pm90 °FSunny.12 mph17%30.14 "Hg10 mi
5:55 pm91 °FSunny.10 mph16%30.14 "Hg10 mi
5:15 pm91 °FSunny.13 mph16%30.14 "Hg10 mi
4:55 pm91 °FSunny.13 mph16%30.14 "Hg10 mi
4:35 pm91 °FSunny.7 mph17%30.14 "Hg10 mi
4:15 pm91 °FSunny.10 mph16%30.15 "Hg10 mi
3:55 pm93 °FSunny.12 mph15%30.15 "Hg10 mi
3:35 pm93 °FSunny.15 mph15%30.15 "Hg10 mi
3:15 pm93 °FSunny.10 mph14%30.16 "Hg10 mi
Weather by CustomWeather, © 2020

See weather overview